SOCA

Cayenne - Félix Eboué Airport

Airport
ICAO code
SOCA
IATA Code
CAY
Summary
ICAO Region
CARSAM
ICAO Territory
Location

Matoury, Cayenne

Serving
Cayenne
Elevation
24 ft
Coordinates
4° 49' 11" N , 52° 21' 43" W
KCC
Metar
SOCA 201830Z AUTO 05003KT 020V090 9999 -RA FEW013 SCT029 BKN047 27/26 Q1009 TEMPO 2000 SHRA BKN014CB

Cayenne - Rochambeau Airport is French Guiana's main international airport. It is located in the commune of Matoury, 13 km southwest of French Guiana's capital city of Cayenne. Air Guyane Express has its head office on the airport property.

Climatology

Tropical rainforest climate (Köppen climate classification Af)

Runways

Designator Length Width Surface Rops
8/26 3196 45 ASP Yes/Yes

Airport map

Aerial View

SKYbrary Partners:

Safety knowledge contributed by: